Erie, PA

6:56 AM EST on December 06, 2016 (GMT -0500)
Erie International

Weather History for KERI - April, 2014

Change the Weather History Date:

Thursday, April 3, 2014

  Actual Average Record
Temperature  
Mean Temperature 36 °F 42 °F  
Max Temperature 40 °F 51 °F 84 °F (2010)
Min Temperature 31 °F 34 °F 17 °F (1965)
Degree Days  
Heating Degree Days 29 23  
Month to date heating degree days 63 70  
Since 1 July heating degree days 6023 5346  
Cooling Degree Days 0 0  
Month to date cooling degree days 0 0  
Year to date cooling degree days 0 1  
Moisture  
Dew Point 28 °F    
Average Humidity 74    
Maximum Humidity 89    
Minimum Humidity 59    
Precipitation  
Precipitation 0.10 in 0.11 in 1.32 in (1988)
Month to date precipitation 0.10 0.34  
Year to date precipitation 9.18 8.63  
Snow  
Snow 0.00 in 0.20 in - ()
Month to date snowfall 0.0 0.7  
Since 1 July snowfall 137.2 98.4  
Snow Depth 0.00 in    
Sea Level Pressure  
Sea Level Pressure 30.07 in    
Wind  
Wind Speed 11 mph (NE)    
Max Wind Speed 18 mph    
Max Gust Speed 23 mph    
Visibility 9 miles    
Events Rain    
T = Trace of Precipitation, MM = Missing Value Source: NWS Daily Summary

Daily Weather History Graph

Daily Weather History Graph

Search for Another Location

Airport or City:

Trip Planner

Search our weather history database for the weather conditions in past years. The results will help you decide how hot, cold, wet, or windy it might be!

Date:

Astronomy

Apr. 03, 2014 Rise Set
Actual Time 7:00 AM EDT 7:48 PM EDT
Civil Twilight 6:31 AM EDT 8:16 PM EDT
Nautical Twilight 5:58 AM EDT 8:50 PM EDT
Astronomical Twilight 5:23 AM EDT 9:25 PM EDT
Moon 9:24 AM EDT (4/3) No Moon Set
Length of Visible Light 13h 45m
Length of Day
12h 48m
Waxing Crescent, 17% of the Moon is Illuminated
Apr 3
Waxing Crescent
Apr 7
First Quarter
Apr 15
Full
Apr 22
Last Quarter
Apr 29
New

Hourly Weather History & Observations

Time (EDT) Temp. Windchill Dew Point Humidity Pressure Visibility Wind Dir Wind Speed Gust Speed Precip Events Conditions
12:51 AM 36.0 °F 29.0 °F 26.1 °F 67% 30.21 in 10.0 mi NE 9.2 mph - N/A   Clear
1:51 AM 36.0 °F 27.1 °F 26.1 °F 67% 30.22 in 10.0 mi ENE 13.8 mph - N/A   Clear
2:51 AM 36.0 °F 28.5 °F 24.1 °F 62% 30.20 in 10.0 mi ENE 10.4 mph - N/A   Overcast
3:51 AM 36.0 °F 27.1 °F 26.1 °F 67% 30.19 in 10.0 mi ENE 13.8 mph - N/A   Overcast
4:51 AM 33.1 °F 26.1 °F 25.0 °F 72% 30.18 in 10.0 mi NE 8.1 mph - N/A   Clear
5:51 AM 32.0 °F 25.6 °F 25.0 °F 75% 30.19 in 10.0 mi ENE 6.9 mph - N/A   Clear
6:51 AM 33.1 °F 26.1 °F 25.0 °F 72% 30.18 in 10.0 mi ENE 8.1 mph - N/A   Overcast
7:51 AM 34.0 °F 28.8 °F 24.1 °F 67% 30.18 in 10.0 mi ENE 5.8 mph - N/A   Overcast
8:51 AM 36.0 °F 29.0 °F 26.1 °F 67% 30.18 in 10.0 mi ENE 9.2 mph - N/A   Mostly Cloudy
9:51 AM 39.0 °F 32.8 °F 26.1 °F 60% 30.17 in 10.0 mi NNE 9.2 mph - N/A   Clear
10:51 AM 39.9 °F 32.9 °F 26.1 °F 58% 30.14 in 10.0 mi NE 11.5 mph - N/A   Clear
11:51 AM 37.9 °F 30.5 °F 26.1 °F 62% 30.14 in 10.0 mi NE 11.5 mph - N/A   Clear
12:51 PM 39.0 °F 31.0 °F 27.0 °F 62% 30.10 in 10.0 mi ENE 13.8 mph - N/A   Clear
1:51 PM 37.4 °F 29.8 °F 26.6 °F 65% 30.06 in 10.0 mi NE 11.5 mph - N/A   Clear
2:51 PM 37.9 °F 28.5 °F 26.1 °F 62% 30.02 in 10.0 mi NE 17.3 mph - N/A   Overcast
3:51 PM 39.0 °F 32.3 °F 27.0 °F 62% 29.99 in 10.0 mi NE 10.4 mph - N/A   Overcast
4:51 PM 37.0 °F 28.5 °F 30.9 °F 79% 30.01 in 5.0 mi ENE 13.8 mph - 0.03 in Rain Light Rain
5:51 PM 37.0 °F 28.9 °F 32.0 °F 82% 29.98 in 7.0 mi NE 12.7 mph - 0.03 in Rain Light Rain
6:51 PM 39.0 °F 31.4 °F 34.0 °F 82% 29.94 in 10.0 mi ENE 12.7 mph - 0.00 in Rain Light Rain
7:51 PM 37.0 °F 29.3 °F 32.0 °F 82% 29.93 in 10.0 mi NE 11.5 mph - 0.01 in Rain Light Rain
8:51 PM 37.9 °F 30.9 °F 34.0 °F 86% 29.93 in 7.0 mi ENE 10.4 mph - 0.02 in Rain Light Rain
9:51 PM 36.0 °F 28.5 °F 32.0 °F 86% 29.91 in 6.0 mi NE 10.4 mph - 0.01 in Rain Light Rain
10:10 PM 35.6 °F 27.5 °F 32.0 °F 87% 29.89 in 6.0 mi NE 11.5 mph - 0.00 in   Overcast
10:51 PM 36.0 °F 29.0 °F 32.0 °F 86% 29.90 in 5.0 mi NE 9.2 mph - 0.00 in   Overcast
11:51 PM 35.1 °F 27.4 °F 32.0 °F 89% 29.88 in 6.0 mi ENE 10.4 mph - N/A   Overcast